Regional Weather Roundup
Issued by NWS

Home | Current Version | Previous Version | Text Only | Print | Product List | Glossary Off
Versions: 1 2 3 4 5 6 7 8 9 10 11 12 13 14 15 16 17 18 19 20 21 22 23 24 25 26 27 28 29 30 31 32 33 34 35 36 37 38 39 40 41 42 43 44 45 46 47 48 49 50

000
ASUS43 KLSX 022110
RWRMO

WEATHER SUMMARY FOR MISSOURI
NATIONAL WEATHER SERVICE SPRINGFIELD MO
300 PM CST FRI DEC 02 2016

NOTE: "FAIR" INDICATES FEW OR NO CLOUDS BELOW 12,000 FEET WITH NO
       SIGNIFICANT WEATHER AND/OR OBSTRUCTIONS TO VISIBILITY.
       CURRENT SKY AND/OR WEATHER CONDITIONS ARE NOT AVAILABLE FOR
       CHILLICOTHE AND FARMINGTON.

MOZ001>031-035>038-043-044-053-054-022200-
...NORTHERN AND WESTERN MISSOURI...

CITY           SKY/WX    TMP DP  RH WIND       PRES   REMARKS
KANSAS CTY INT MOSUNNY   49  26  41 CALM      30.28R
KANSAS C DTWN  SUNNY     51  27  39 VRB3      30.27S
LEE`S SUMMIT   MOSUNNY   48  26  42 NE3       30.27S
ST JOSEPH      SUNNY     46  27  47 NW3       30.29R
CHILLICOTHE      N/A     48  29  47 NW5       30.28S
KIRKSVILLE     SUNNY     46  30  53 NW3       30.27R

$$
MOZ066>068-077>081-088>096-101>105-022200-
...SOUTHWEST MISSOURI...

CITY           SKY/WX    TMP DP  RH WIND       PRES   REMARKS
SPRINGFIELD    SUNNY     56  25  30 NE6       30.22S
JOPLIN         SUNNY     57  28  33 E12       30.21F
BRANSON        CLOUDY    55  30  38 E5        30.23S

$$
MOZ032>034-039>042-045>050-055>058-069>072-022200-
...CENTRAL MISSOURI...

CITY           SKY/WX    TMP DP  RH WIND       PRES   REMARKS
COLUMBIA       SUNNY     49  26  41 W7        30.27R
JEFFERSON CITY SUNNY     50  26  39 NW8       30.28R
ROLLA          SUNNY     51  27  39 N3        30.25R
SEDALIA        SUNNY     50  25  37 NW7       30.28S
WHITEMAN AFB   MOSUNNY   49  26  41 N5        30.26S
WARRENSBURG    SUNNY     50  27  40 CALM      30.27F
OSAGE BEACH    SUNNY     52  24  33 NW3       30.28R

$$
MOZ051-052-059>065-022200-
...EAST CENTRAL MISSOURI...

CITY           SKY/WX    TMP DP  RH WIND       PRES   REMARKS
ST LOUIS INTL  MOSUNNY   48  28  46 W8        30.28S
SPIRIT OF STL  MOSUNNY   50  30  46 NW8       30.27R
ST CHARLES     SUNNY     47  29  49 W6        30.28R

$$
MOZ072>076-082>087-097>100-106>115-022200-
...SOUTH CENTRAL AND SOUTHEAST MISSOURI...

CITY           SKY/WX    TMP DP  RH WIND       PRES   REMARKS
CAPE GIRARDEAU SUNNY     52  28  39 N3        30.27R
FARMINGTON     SUNNY     50  27  40 CALM      30.26R
POPLAR BLUFF   SUNNY     53  32  44 S6        30.27R
WEST PLAINS    SUNNY     55  26  32 CALM      30.25S

$$




USA.gov is the U.S. government's official web portal to all federal, state and local government web resources and services.